Epoch 2019 Aug. 25.0 TT = JDT 2458720.5
T 2019 Aug. 18.40513 TT Rudenko
q 2.4059602 (2000.0) P Q
n 0.00749584 Peri. 175.97274 +0.25994062 +0.91236348
a 25.8576556 Node 251.13284 +0.87634450 -0.08534723
e 0.9069537 Incl. 160.47471 +0.40552582 -0.40038573
P 131
From 808 observations 2016 Apr. 5-2021 Oct. 9, mean residual 0".5.
星図
光度変化
H = 13.5 G = 0.15 [ ,-325] ( 〜2018年 9月27日)
m1 = 11.0 + 5 logΔ + 10.0 log r [-325, 205] (2018年 9月27日〜2020年 3月10日)
H = 13.0 G = 0.15 [ 205, ] (2020年 3月10日〜 )